GW0821 Weather Reports


time (UTC)temp
F
wind
direction
speed
knots
gust
knots
rain 1hr
in
rain 24hr
in
rain mn
in
humidity
%
barometer
mb
20260902113049 87 164 2.6 7.0 0.00 0.00 0.00 38 1020.3
20260902111602 87 215 2.6 9.6 0.00 0.00 0.00 39 1020.4
20260902104605 86 190 2.6 7.0 0.00 0.00 0.00 47 1020.5
20260902103122 85 293 2.6 5.2 0.00 0.00 0.00 48 1020.6
20260902101604 85 117 0.9 2.6 0.00 0.00 0.00 50 1020.7
20260902100053 84 0 0.9 2.6 0.00 0.00 0.00 51 1020.8
20260902094552 83 146 0.9 2.6 0.00 0.00 0.00 53 1020.9
20260902093046 82 93 0.9 3.5 0.00 0.00 0.00 55 1020.9
20260902091552 81 259 0.0 3.5 0.00 0.00 0.00 59 1020.8
20260902090052 79 329 0.9 3.5 0.00 0.00 0.00 62 1020.9
20260902084554 78 251 0.9 5.2 0.00 0.00 0.00 66 1020.9
20260902083051 76 14 1.7 4.3 0.00 0.00 0.00 69 1020.8
20260902081555 75 0 0.9 5.2 0.00 0.00 0.00 71 1020.9
20260902080050 74 94 0.0 2.6 0.00 0.00 0.00 73 1020.9
20260902074546 73 74 1.7 4.3 0.00 0.00 0.00 75 1020.8
20260902073047 72 57 0.9 2.6 0.00 0.00 0.00 78 1020.8
20260902071552 71 42 0.9 3.5 0.00 0.00 0.00 80 1020.9
20260902070055 69 0 0.0 0.0 0.00 0.00 0.00 83 1020.9
20260902064558 67 0 0.0 1.7 0.00 0.00 0.00 87 1020.7
20260902063107 65 0 0.0 0.9 0.00 0.00 0.00 91 1020.5
20260902061609 63 0 0.0 0.0 0.00 0.00 0.00 91 1020.5
20260902060057 63 0 0.0 0.0 0.00 0.00 0.00 92 1020.4
20260902054553 62 0 0.0 0.0 0.00 0.00 0.00 92 1020.3
20260902053105 62 0 0.0 0.0 0.00 0.00 0.00 91 1020.3
20260902051606 62 0 0.0 0.0 0.00 0.00 0.00 91 1020.1
20260902050052 62 0 0.0 0.0 0.00 0.00 0.00 91 1020.0
20260902044606 62 0 0.0 0.0 0.00 0.00 0.00 91 1019.9
20260902043103 62 0 0.0 0.0 0.00 0.00 0.00 90 1020.0
20260902041555 63 194 0.0 0.0 0.00 0.00 0.00 91 1020.1
20260902040054 63 0 0.0 0.0 0.00 0.00 0.00 90 1020.2
20260902034551 63 0 0.0 0.0 0.00 0.00 0.00 90 1020.3
20260902033056 63 0 0.0 0.9 0.00 0.00 0.00 90 1020.3
20260902031600 63 0 0.0 0.0 0.00 0.00 0.00 90 1020.3
20260902030056 63 0 0.0 0.9 0.00 0.00 0.00 90 1020.3
20260902024557 63 13 0.0 0.9 0.00 0.00 0.00 90 1020.1
20260902023049 63 0 0.0 0.9 0.00 0.00 0.00 89 1020.0
20260902021552 64 0 0.0 1.7 0.00 0.00 0.00 89 1020.2
20260902020053 64 0 0.0 4.3 0.00 0.00 0.00 90 1020.1
20260902014557 64 0 0.0 0.0 0.00 0.00 0.00 89 1020.0
20260902013107 64 0 0.0 0.0 0.00 0.00 0.00 89 1020.1
20260902011553 64 0 0.0 0.0 0.00 0.00 0.00 89 1020.4
20260902010049 64 0 0.0 0.0 0.00 0.00 0.00 88 1020.4
20260902004549 64 0 0.0 0.0 0.00 0.00 0.00 88 1020.4
20260902003048 64 0 0.0 0.0 0.00 0.00 0.00 88 1020.3
20260902001554 65 0 0.0 0.0 0.00 0.00 0.00 88 1020.4
20260902000051 65 0 0.0 0.0 0.00 0.00 0.00 87 1020.4
20260901234547 65 0 0.0 0.0 0.00 0.00 0.00 87 1020.4
20260901233056 66 0 0.0 0.0 0.00 0.00 0.00 87 1020.2
20260901231605 66 0 0.0 0.0 0.00 0.00 0.00 87 1020.0
20260901230103 66 0 0.0 0.0 0.00 0.00 0.00 87 1019.9
20260901224549 66 0 0.0 0.0 0.00 0.00 0.00 86 1019.9
20260901223054 67 0 0.0 0.0 0.00 0.00 0.00 85 1019.9
20260901221606 67 0 0.0 0.0 0.00 0.00 0.00 84 1019.8
20260901220051 67 0 0.0 0.9 0.00 0.00 0.00 84 1019.8
20260901214556 68 0 0.0 0.9 0.00 0.00 0.00 83 1019.5
20260901213056 68 220 0.0 0.9 0.00 0.00 0.00 83 1019.3
20260901211550 69 0 0.0 0.0 0.00 0.00 0.00 82 1019.2
20260901210051 69 0 0.0 0.9 0.00 0.00 0.00 82 1019.2
20260901204554 69 0 0.0 0.9 0.00 0.00 0.00 82 1019.1
20260901203056 70 0 0.0 0.0 0.00 0.00 0.00 80 1019.0
20260901201550 71 0 0.0 0.9 0.00 0.00 0.00 79 1018.9
20260901200059 71 0 0.0 0.0 0.00 0.00 0.00 79 1018.9
20260901194603 72 0 0.0 0.0 0.00 0.00 0.00 78 1018.9
20260901193054 72 0 0.0 0.0 0.00 0.00 0.00 77 1018.5
20260901191550 73 0 0.0 0.0 0.00 0.00 0.00 76 1018.2
20260901190048 74 0 0.0 0.0 0.00 0.00 0.00 75 1017.8
20260901184545 75 0 0.0 0.0 0.00 0.00 0.00 73 1017.8
20260901183115 75 163 0.0 0.9 0.00 0.00 0.00 73 1017.9
20260901181552 76 0 0.0 3.5 0.00 0.00 0.00 72 1018.1
20260901180051 76 141 1.7 4.3 0.00 0.00 0.00 71 1018.2
20260901174556 77 169 1.7 6.1 0.00 0.00 0.00 71 1018.4
20260901173112 77 130 0.9 6.1 0.00 0.00 0.00 70 1018.4
20260901171600 78 211 1.7 6.1 0.00 0.00 0.00 70 1018.3
20260901170057 78 155 4.3 7.0 0.00 0.00 0.00 70 1018.6
20260901164559 79 145 1.7 7.8 0.00 0.00 0.00 69 1019.0
20260901163111 80 141 4.3 8.7 0.00 0.00 0.00 69 1018.9
20260901161602 79 173 2.6 7.0 0.00 0.00 0.00 69 1018.7
20260901160056 81 136 3.5 10.4 0.00 0.00 0.00 66 1018.7
20260901154549 81 203 3.5 9.6 0.00 0.00 0.00 65 1018.7
20260901153048 80 149 3.5 11.3 0.00 0.00 0.00 66 1018.9
20260901151559 80 158 3.5 9.6 0.00 0.00 0.00 65 1018.9
20260901150050 82 154 4.3 9.6 0.00 0.00 0.00 63 1018.8
20260901144548 82 154 4.3 9.6 0.00 0.00 0.00 63 1018.9
20260901143050 83 219 2.6 7.0 0.00 0.00 0.00 62 1018.8
20260901141554 82 203 2.6 7.0 0.00 0.00 0.00 65 1018.8
20260901140057 80 193 2.6 8.7 0.00 0.00 0.00 67 1018.9
20260901134552 81 141 3.5 7.8 0.00 0.00 0.00 65 1019.2
20260901133106 81 277 2.6 10.4 0.00 0.00 0.00 66 1019.7
20260901131558 81 180 4.3 10.4 0.00 0.00 0.00 64 1019.6
20260901130057 82 170 3.5 8.7 0.00 0.00 0.00 63 1019.8
20260901124550 82 153 3.5 10.4 0.00 0.00 0.00 62 1019.9
20260901123049 81 153 5.2 11.3 0.00 0.00 0.00 61 1020.0
20260901121553 83 222 5.2 10.4 0.00 0.00 0.00 58 1020.1
20260901120106 82 207 4.3 7.0 0.00 0.00 0.00 58 1020.1
20260901114552 82 160 3.5 7.8 0.00 0.00 0.00 58 1020.1